EFOU Weather Reports


time (UTC)temp
F
wind
direction
speed
knots
gust
knots
rain 1hr
in
rain 24hr
in
rain mn
in
humidity
%
barometer
mb
20260506102718 39 292 7.8 11.3 0.00 0.00 0.00 90 1007.1
20260506100718 40 288 5.2 10.4 0.00 0.00 0.00 91 1006.8
20260506094718 39 285 7.0 12.2 0.00 0.00 0.00 91 1006.5
20260506092718 38 277 6.1 9.6 0.00 0.00 0.00 93 1006.2
20260506090718 37 285 7.0 9.6 0.00 0.00 0.00 93 1006.0
20260506084718 37 279 6.1 9.6 0.00 0.00 0.00 95 1005.8
20260506082718 37 284 6.1 9.6 0.00 0.00 0.00 94 1005.5
20260506080718 37 278 5.2 8.7 0.00 0.00 0.00 93 1005.2
20260506072718 36 264 6.1 9.6 0.00 0.00 0.00 91 1004.5
20260506070718 36 267 7.0 10.4 0.00 0.00 0.00 91 1004.2
20260506060717 37 279 9.6 14.8 0.00 0.00 0.00 94 1003.2
20260506050717 37 289 8.7 11.3 0.00 0.00 0.00 94 1002.5
20260506044717 36 286 9.6 15.6 0.00 0.00 0.00 92 1002.3
20260506042717 36 288 7.8 12.2 0.00 0.00 0.00 93 1002.1
20260506040717 36 290 9.6 13.9 0.00 0.00 0.00 93 1001.9
20260506034717 36 293 9.6 13.0 0.00 0.00 0.00 92 1001.7
20260506032717 36 290 8.7 12.2 0.00 0.00 0.00 92 1001.6
20260506030717 37 293 8.7 13.0 0.00 0.00 0.00 92 1001.4
20260506024717 37 292 8.7 14.8 0.00 0.00 0.00 90 1001.3
20260506022717 37 291 9.6 14.8 0.00 0.00 0.00 89 1001.1
20260506020716 37 295 7.8 11.3 0.00 0.00 0.00 90 1001.0
20260506014717 37 292 9.6 13.9 0.00 0.00 0.00 90 1000.9
20260506012716 38 292 7.8 11.3 0.00 0.00 0.00 89 1000.8
20260506010716 38 287 7.8 11.3 0.00 0.00 0.00 88 1000.7
20260506004716 37 289 9.6 14.8 0.00 0.00 0.00 89 1000.5
20260506002716 37 290 8.7 13.9 0.00 0.00 0.00 90 1000.5
20260506000716 37 289 11.3 19.1 0.00 0.00 0.00 90 1000.4
20260505234716 37 289 11.3 18.2 0.00 0.00 0.00 90 1000.3
20260505232716 38 289 13.0 19.1 0.00 0.00 0.00 90 1000.2
20260505230716 37 283 11.3 16.5 0.00 0.00 0.00 92 1000.3
20260505224716 38 288 13.0 20.0 0.00 0.00 0.00 88 1000.2
20260505222716 39 293 11.3 16.5 0.00 0.00 0.00 83 1000.2
20260505220716 39 292 10.4 15.6 0.00 0.00 0.00 84 1000.2
20260505214716 38 289 10.4 16.5 0.00 0.00 0.00 84 1000.1
20260505212716 38 292 10.4 14.8 0.00 0.00 0.00 84 1000.1
20260505210716 38 288 8.7 13.9 0.00 0.00 0.00 84 1000.0
20260505204716 39 287 9.6 14.8 0.00 0.00 0.00 81 999.8
20260505202716 38 264 7.0 11.3 0.00 0.00 0.00 82 999.8
20260505200716 39 269 7.8 13.9 0.00 0.00 0.00 81 999.7
20260505194715 39 281 7.8 13.0 0.00 0.00 0.00 79 999.6
20260505192715 40 274 7.8 13.9 0.00 0.00 0.00 77 999.6
20260505190715 39 276 5.2 9.6 0.00 0.00 0.00 77 999.6
20260505184715 40 287 8.7 13.0 0.00 0.00 0.00 73 999.5
20260505182715 41 280 10.4 18.2 0.00 0.00 0.00 69 999.2
20260505180715 42 280 10.4 19.1 0.00 0.00 0.00 64 999.1
20260505174715 42 280 12.2 18.2 0.00 0.00 0.00 62 999.0
20260505172715 42 278 13.0 22.6 0.00 0.00 0.00 63 998.9
20260505170715 42 286 12.2 18.2 0.00 0.00 0.00 67 998.8
20260505164715 42 279 13.9 21.7 0.00 0.00 0.00 68 998.7
20260505162715 43 283 11.3 15.6 0.00 0.00 0.00 65 998.4
20260505160715 43 283 13.9 21.7 0.00 0.00 0.00 65 998.3
20260505152714 44 277 13.9 22.6 0.00 0.00 0.00 61 998.0
20260505150715 44 281 15.6 21.7 0.00 0.00 0.00 61 997.8
20260505124714 44 272 13.9 20.9 0.00 0.00 0.00 57 996.6
20260505122714 43 280 12.2 20.9 0.00 0.00 0.00 55 996.5
20260505120714 43 269 13.0 21.7 0.00 0.00 0.00 59 996.5
20260505114714 44 270 13.0 20.0 0.00 0.00 0.00 60 996.2
20260505112714 43 282 15.6 24.3 0.00 0.00 0.00 63 995.9
20260505110714 42 280 14.8 24.3 0.00 0.00 0.00 68 995.8